This demonstration page uses our WeatherBlox Daily Observations layout. Learn more.

Left ArrowRight Arrow

Hourly Observations for June 16, 2016

Temp ( °F °C ) Dew Point ( °F °C ) Humidity (%) Winds ( mph kmh ) Pressure ( in mb ) Visibility ( mi km ) Precip ( " mm )
12:54 am 00:54 Clear 82 27.8 63 17.2 53 53 Calm 29.82 1010 10 16.0934 0 0
1:54 am 01:54 Clear 76 24.4 65 18.3 69 69 NNE 3 6 29.83 1010 10 16.0934 0 0
2:54 am 02:54 Clear 77 25 65 18.3 66 66 WNW 3 6 29.83 1010 10 16.0934 0 0
3:54 am 03:54 Clear 76 24.4 63 17.2 64 64 SSW 3 6 29.83 1010 10 16.0934 0 0
4:54 am 04:54 Clear 73 22.8 63 17.2 71 71 Calm 29.83 1010 10 16.0934 0 0
5:54 am 05:54 Clear 71 21.7 64 17.8 79 79 Calm 29.85 1011 10 16.0934 0 0
6:54 am 06:54 Sunny 70 21.1 65 18.3 84 84 Calm 29.85 1011 10 16.0934 0 0
7:54 am 07:54 Sunny 76 24.4 63 17.2 64 64 Calm 29.84 1011 10 16.0934 0 0
8:54 am 08:54 Sunny 82 27.8 61 16.1 49 49 SSE 7 11 29.84 1011 10 16.0934 0 0
9:54 am 09:54 Sunny 86 30 62 16.7 45 45 SE 6 9 29.83 1010 10 16.0934 0 0
10:54 am 10:54 Sunny 88 31.1 66 18.9 48 48 S 6 9 29.82 1010 10 16.0934 0 0
11:54 am 11:54 Sunny 90 32.2 69 20.6 50 50 SSE 10 17 29.83 1010 10 16.0934 0 0
12:54 pm 12:54 Sunny 93 33.9 69 20.6 46 46 SSE 15 24 29.81 1010 10 16.0934 0 0
1:54 pm 13:54 Sunny 95 35 70 21.1 44 44 SSE 17 28 29.8 1009 10 16.0934 0 0
2:54 pm 14:54 Sunny 96 35.6 70 21.1 43 43 SE 16 26 29.78 1009 10 16.0934 0 0
3:54 pm 15:54 Sunny 97 36.1 70 21.1 42 42 SE 15 24 29.77 1008 10 16.0934 0 0
4:54 pm 16:54 Sunny 98 36.7 69 20.6 39 39 SSE 20 31 29.76 1008 10 16.0934 0 0
5:54 pm 17:54 Sunny 97 36.1 68 20 39 39 SSE 14 22 29.75 1007 10 16.0934 0 0
6:54 pm 18:54 Sunny 96 35.6 70 21.1 43 43 SE 13 20 29.76 1008 10 16.0934 0 0
7:54 pm 19:54 Sunny 93 33.9 68 20 44 44 SE 13 20 29.77 1008 10 16.0934 0 0
8:54 pm 20:54 Sunny 91 32.8 68 20 47 47 SE 10 17 29.78 1008 10 16.0934 0 0
9:54 pm 21:54 Clear 89 31.7 69 20.6 52 52 SE 9 15 29.8 1009 10 16.0934 0 0
10:54 pm 22:54 Clear 86 30 70 21.1 59 59 SSE 9 15 29.81 1010 10 16.0934 0 0
11:54 pm 23:54 Clear 85 29.4 71 21.7 63 63 SE 12 19 29.82 1010 10 16.0934 0 0

Powered by AerisWeather